"Sample Date","Sample Time","Sample Value","Units","Flow Rate","Sample Interval","Number Channels","Micron Size 0","Counts/Channel 0","Micron Size 1","Counts/Channel 1","Micron Size 2","Counts/Channel 2","Micron Size 3","Counts/Channel 3","Micron Size 4","Counts/Channel 4","Micron Size 5","Counts/Channel 5","Micron Size 6","Counts/Channel 6","Micron Size 7","Counts/Channel 7","Micron Size 8","Counts/Channel 8","Micron Size 9","Counts/Channel 9","Micron Size 10","Counts/Channel 10","Micron Size 11","Counts/Channel 11","Micron Size 12","Counts/Channel 12","Micron Size 13","Counts/Channel 13","Micron Size 14","Counts/Channel 14","Micron Size 15","Counts/Channel 15","Micron Size 16","Counts/Channel 16","Micron Size 17","Counts/Channel 17","Micron Size 18","Counts/Channel 18","Micron Size 19","Counts/Channel 19","Micron Size 20","Counts/Channel 20","Micron Size 21","Counts/Channel 21","Micron Size 22","Counts/Channel 22","Micron Size 23","Counts/Channel 23","Micron Size 24","Counts/Channel 24","Micron Size 25","Counts/Channel 25","Micron Size 26","Counts/Channel 26","Micron Size 27","Counts/Channel 27","Micron Size 28","Counts/Channel 28","Micron Size 29","Counts/Channel 29","Micron Size 30","Counts/Channel 30","Micron Size 31","Counts/Channel 31"
"04/07/08","16:00:04",15214.000,"cc",28298.035,6.00,6,0.100,7349.000,0.200,2367.000,0.300,2054.000,0.500,2495.000,1.000,949.000,5.000,0
"04/07/08","16:00:10",15658.000,"cc",28301.561,6.00,6,0.100,7562.000,0.200,2409.000,0.300,2056.000,0.500,2589.000,1.000,1041.000,5.000,1.000
"04/07/08","16:00:16",15752.000,"cc",28273.971,6.00,6,0.100,7394.000,0.200,2545.000,0.300,2169.000,0.500,2573.000,1.000,1071.000,5.000,0
"04/07/08","16:00:22",15720.000,"cc",28223.070,6.00,6,0.100,7460.000,0.200,2546.000,0.300,2200.000,0.500,2549.000,1.000,965.000,5.000,0
"04/07/08","16:00:28",15868.000,"cc",28297.086,6.00,6,0.100,7499.000,0.200,2631.000,0.300,2135.000,0.500,2558.000,1.000,1045.000,5.000,0
"04/07/08","16:00:34",16201.000,"cc",28412.848,6.00,6,0.100,7735.000,0.200,2583.000,0.300,2232.000,0.500,2596.000,1.000,1055.000,5.000,0
"04/07/08","16:00:40",16367.000,"cc",28396.051,6.00,6,0.100,7571.000,0.200,2819.000,0.300,2263.000,0.500,2641.000,1.000,1073.000,5.000,0
"04/07/08","16:00:46",16948.000,"cc",28282.410,6.00,6,0.100,7935.000,0.200,2780.000,0.300,2330.000,0.500,2826.000,1.000,1077.000,5.000,0
"04/07/08","16:00:52",17375.000,"cc",28170.576,6.00,6,0.100,8220.000,0.200,2875.000,0.300,2402.000,0.500,2720.000,1.000,1158.000,5.000,0
"04/07/08","16:00:58",17364.000,"cc",28273.307,6.00,6,0.100,8156.000,0.200,2845.000,0.300,2481.000,0.500,2822.000,1.000,1060.000,5.000,0
"04/07/08","16:01:04",17652.000,"cc",28301.248,6.00,6,0.100,8210.000,0.200,3013.000,0.300,2385.000,0.500,3018.000,1.000,1026.000,5.000,0
"04/07/08","16:01:10",17514.000,"cc",28355.297,6.00,6,0.100,8162.000,0.200,2861.000,0.300,2543.000,0.500,2875.000,1.000,1073.000,5.000,0
"04/07/08","16:01:16",16429.000,"cc",28232.818,6.00,6,0.100,7805.000,0.200,2642.000,0.300,2338.000,0.500,2607.000,1.000,1037.000,5.000,0
"04/07/08","16:01:22",17159.000,"cc",28460.543,6.00,6,0.100,8060.000,0.200,2810.000,0.300,2344.000,0.500,2834.000,1.000,1111.000,5.000,0
"04/07/08","16:01:28",15989.000,"cc",28428.143,6.00,6,0.100,7667.000,0.200,2541.000,0.300,2275.000,0.500,2496.000,1.000,1010.000,5.000,0
"04/07/08","16:01:34",15893.000,"cc",28319.125,6.00,6,0.100,7568.000,0.200,2618.000,0.300,2110.000,0.500,2614.000,1.000,983.000,5.000,0
"04/07/08","16:01:40",15793.000,"cc",28276.088,6.00,6,0.100,7507.000,0.200,2544.000,0.300,2138.000,0.500,2591.000,1.000,1013.000,5.000,0
"04/07/08","16:01:46",16059.000,"cc",28276.637,6.00,6,0.100,7550.000,0.200,2608.000,0.300,2279.000,0.500,2593.000,1.000,1029.000,5.000,0
"04/07/08","16:01:52",15497.000,"cc",28334.697,6.00,6,0.100,7368.000,0.200,2487.000,0.300,2115.000,0.500,2553.000,1.000,974.000,5.000,0
"04/07/08","16:01:58",16070.000,"cc",28293.951,6.00,6,0.100,7611.000,0.200,2642.000,0.300,2134.000,0.500,2676.000,1.000,1007.000,5.000,0
"04/07/08","16:02:04",16119.000,"cc",28151.834,6.00,6,0.100,7680.000,0.200,2704.000,0.300,2173.000,0.500,2583.000,1.000,979.000,5.000,0
"04/07/08","16:02:10",16415.000,"cc",28452.938,6.00,6,0.100,7657.000,0.200,2745.000,0.300,2352.000,0.500,2607.000,1.000,1054.000,5.000,0
"04/07/08","16:02:16",16189.000,"cc",28550.820,6.00,6,0.100,7641.000,0.200,2631.000,0.300,2245.000,0.500,2548.000,1.000,1124.000,5.000,0
"04/07/08","16:02:22",16738.000,"cc",28337.338,6.00,6,0.100,7916.000,0.200,2760.000,0.300,2308.000,0.500,2683.000,1.000,1070.000,5.000,1.000
"04/07/08","16:02:28",17076.000,"cc",28172.137,6.00,6,0.100,8066.000,0.200,2898.000,0.300,2259.000,0.500,2765.000,1.000,1088.000,5.000,0
"04/07/08","16:02:34",17012.000,"cc",28298.813,6.00,6,0.100,7957.000,0.200,2792.000,0.300,2362.000,0.500,2826.000,1.000,1075.000,5.000,0
"04/07/08","16:02:40",16863.000,"cc",28289.424,6.00,6,0.100,7931.000,0.200,2822.000,0.300,2270.000,0.500,2728.000,1.000,1112.000,5.000,0
"04/07/08","16:02:46",18521.000,"cc",28274.654,6.00,6,0.100,8650.000,0.200,3126.000,0.300,2584.000,0.500,3041.000,1.000,1120.000,5.000,0
"04/07/08","16:02:52",16431.000,"cc",28307.016,6.00,6,0.100,7700.000,0.200,2718.000,0.300,2237.000,0.500,2707.000,1.000,1069.000,5.000,0
"04/07/08","16:02:58",16978.000,"cc",28372.848,6.00,6,0.100,7972.000,0.200,2840.000,0.300,2358.000,0.500,2699.000,1.000,1109.000,5.000,0
"04/07/08","16:03:04",15792.000,"cc",28357.773,6.00,6,0.100,7451.000,0.200,2488.000,0.300,2190.000,0.500,2644.000,1.000,1019.000,5.000,0
"04/07/08","16:03:10",16326.000,"cc",28292.656,6.00,6,0.100,7705.000,0.200,2647.000,0.300,2312.000,0.500,2671.000,1.000,991.000,5.000,0
"04/07/08","16:03:16",16812.000,"cc",28410.283,6.00,6,0.100,7965.000,0.200,2731.000,0.300,2305.000,0.500,2736.000,1.000,1075.000,5.000,0
"04/07/08","16:03:22",16755.000,"cc",28263.613,6.00,6,0.100,7934.000,0.200,2684.000,0.300,2304.000,0.500,2682.000,1.000,1151.000,5.000,0
"04/07/08","16:03:28",17091.000,"cc",28357.838,6.00,6,0.100,7858.000,0.200,2812.000,0.300,2383.000,0.500,2784.000,1.000,1254.000,5.000,0
"04/07/08","16:03:34",16473.000,"cc",28259.522,6.00,6,0.100,7774.000,0.200,2570.000,0.300,2406.000,0.500,2639.000,1.000,1084.000,5.000,0
"04/07/08","16:03:40",16115.000,"cc",28296.881,6.00,6,0.100,7463.000,0.200,2674.000,0.300,2211.000,0.500,2666.000,1.000,1101.000,5.000,0
"04/07/08","16:03:46",16279.000,"cc",28426.514,6.00,6,0.100,7515.000,0.200,2720.000,0.300,2231.000,0.500,2763.000,1.000,1050.000,5.000,0
"04/07/08","16:03:52",16262.000,"cc",28440.377,6.00,6,0.100,7755.000,0.200,2618.000,0.300,2248.000,0.500,2656.000,1.000,985.000,5.000,0
"04/07/08","16:03:58",15622.000,"cc",28381.607,6.00,6,0.100,7416.000,0.200,2493.000,0.300,2092.000,0.500,2551.000,1.000,1070.000,5.000,0
"04/07/08","16:04:04",17027.000,"cc",28170.338,6.00,6,0.100,7979.000,0.200,2801.000,0.300,2343.000,0.500,2751.000,1.000,1152.000,5.000,1.000
"04/07/08","16:04:10",16423.000,"cc",28273.426,6.00,6,0.100,7702.000,0.200,2714.000,0.300,2282.000,0.500,2665.000,1.000,1060.000,5.000,0
"04/07/08","16:04:16",15310.000,"cc",28411.977,6.00,6,0.100,7319.000,0.200,2434.000,0.300,2079.000,0.500,2525.000,1.000,953.000,5.000,0
"04/07/08","16:04:22",15427.000,"cc",28368.154,6.00,6,0.100,7293.000,0.200,2571.000,0.300,2077.000,0.500,2506.000,1.000,980.000,5.000,0
"04/07/08","16:04:28",16109.000,"cc",28208.775,6.00,6,0.100,7631.000,0.200,2617.000,0.300,2132.000,0.500,2656.000,1.000,1073.000,5.000,0
"04/07/08","16:04:34",16372.000,"cc",28264.227,6.00,6,0.100,7769.000,0.200,2726.000,0.300,2248.000,0.500,2604.000,1.000,1025.000,5.000,0
"04/07/08","16:04:40",16227.000,"cc",28250.027,6.00,6,0.100,7580.000,0.200,2625.000,0.300,2292.000,0.500,2638.000,1.000,1092.000,5.000,0
"04/07/08","16:04:46",15734.000,"cc",28300.264,6.00,6,0.100,7408.000,0.200,2517.000,0.300,2202.000,0.500,2472.000,1.000,1135.000,5.000,0
"04/07/08","16:04:52",15861.000,"cc",28272.695,6.00,6,0.100,7560.000,0.200,2548.000,0.300,2076.000,0.500,2643.000,1.000,1034.000,5.000,0
"04/07/08","16:04:58",16127.000,"cc",28332.078,6.00,6,0.100,7697.000,0.200,2609.000,0.300,2276.000,0.500,2502.000,1.000,1043.000,5.000,0
"04/07/08","16:05:04",16135.000,"cc",28348.285,6.00,6,0.100,7677.000,0.200,2602.000,0.300,2236.000,0.500,2631.000,1.000,989.000,5.000,0
"04/07/08","16:05:10",16430.000,"cc",28329.578,6.00,6,0.100,7606.000,0.200,2716.000,0.300,2283.000,0.500,2719.000,1.000,1106.000,5.000,0
"04/07/08","16:05:16",16987.000,"cc",28361.875,6.00,6,0.100,7915.000,0.200,2819.000,0.300,2351.000,0.500,2775.000,1.000,1127.000,5.000,0
"04/07/08","16:05:22",16675.000,"cc",28405.932,6.00,6,0.100,7712.000,0.200,2885.000,0.300,2296.000,0.500,2696.000,1.000,1086.000,5.000,0
"04/07/08","16:05:28",19485.000,"cc",28152.578,6.00,6,0.100,9163.000,0.200,3250.000,0.300,2737.000,0.500,3117.000,1.000,1217.000,5.000,1.000
"04/07/08","16:05:34",17001.000,"cc",28311.141,6.00,6,0.100,7867.000,0.200,2880.000,0.300,2431.000,0.500,2800.000,1.000,1023.000,5.000,0
"04/07/08","16:05:40",15378.000,"cc",28481.010,6.00,6,0.100,7332.000,0.200,2529.000,0.300,2098.000,0.500,2388.000,1.000,1031.000,5.000,0
"04/07/08","16:05:46",15482.000,"cc",28291.957,6.00,6,0.100,7297.000,0.200,2512.000,0.300,2101.000,0.500,2570.000,1.000,1002.000,5.000,0
"04/07/08","16:05:52",15799.000,"cc",28292.818,6.00,6,0.100,7363.000,0.200,2568.000,0.300,2230.000,0.500,2601.000,1.000,1037.000,5.000,0
"04/07/08","16:05:58",16471.000,"cc",28238.559,6.00,6,0.100,7535.000,0.200,2817.000,0.300,2361.000,0.500,2682.000,1.000,1076.000,5.000,0
"04/07/08","16:06:04",16448.000,"cc",28211.832,6.00,6,0.100,7710.000,0.200,2753.000,0.300,2251.000,0.500,2728.000,1.000,1006.000,5.000,0
"04/07/08","16:06:10",16814.000,"cc",28433.258,6.00,6,0.100,7847.000,0.200,2859.000,0.300,2352.000,0.500,2717.000,1.000,1039.000,5.000,0
"04/07/08","16:06:16",17019.000,"cc",28406.148,6.00,6,0.100,7817.000,0.200,2841.000,0.300,2401.000,0.500,2807.000,1.000,1153.000,5.000,0
"04/07/08","16:06:22",17545.000,"cc",28053.684,6.00,6,0.100,8305.000,0.200,2983.000,0.300,2415.000,0.500,2806.000,1.000,1036.000,5.000,0
"04/07/08","16:06:28",16872.000,"cc",28306.732,6.00,6,0.100,7960.000,0.200,2728.000,0.300,2426.000,0.500,2690.000,1.000,1068.000,5.000,0
"04/07/08","16:06:34",16936.000,"cc",28478.467,6.00,6,0.100,7958.000,0.200,2838.000,0.300,2336.000,0.500,2720.000,1.000,1084.000,5.000,0
"04/07/08","16:06:40",16149.000,"cc",28325.039,6.00,6,0.100,7565.000,0.200,2680.000,0.300,2241.000,0.500,2662.000,1.000,1001.000,5.000,0
"04/07/08","16:06:46",16681.000,"cc",28246.891,6.00,6,0.100,7809.000,0.200,2750.000,0.300,2330.000,0.500,2725.000,1.000,1067.000,5.000,0
"04/07/08","16:06:52",16586.000,"cc",28248.766,6.00,6,0.100,7699.000,0.200,2776.000,0.300,2377.000,0.500,2680.000,1.000,1054.000,5.000,0
"04/07/08","16:06:58",16891.000,"cc",28313.047,6.00,6,0.100,7763.000,0.200,2891.000,0.300,2397.000,0.500,2778.000,1.000,1062.000,5.000,0
"04/07/08","16:07:04",15977.000,"cc",28511.488,6.00,6,0.100,7494.000,0.200,2677.000,0.300,2204.000,0.500,2537.000,1.000,1065.000,5.000,0
"04/07/08","16:07:10",16343.000,"cc",28339.520,6.00,6,0.100,7710.000,0.200,2665.000,0.300,2244.000,0.500,2706.000,1.000,1018.000,5.000,0
"04/07/08","16:07:16",15492.000,"cc",28327.772,6.00,6,0.100,7261.000,0.200,2566.000,0.300,2107.000,0.500,2556.000,1.000,1002.000,5.000,0
"04/07/08","16:07:22",16114.000,"cc",28170.152,6.00,6,0.100,7501.000,0.200,2692.000,0.300,2306.000,0.500,2616.000,1.000,999.000,5.000,0
"04/07/08","16:07:28",15576.000,"cc",28325.287,6.00,6,0.100,7248.000,0.200,2608.000,0.300,2106.000,0.500,2592.000,1.000,1022.000,5.000,0
"04/07/08","16:07:34",16411.000,"cc",28308.305,6.00,6,0.100,7670.000,0.200,2672.000,0.300,2284.000,0.500,2688.000,1.000,1097.000,5.000,0
"04/07/08","16:07:40",16938.000,"cc",28211.123,6.00,6,0.100,8072.000,0.200,2734.000,0.300,2328.000,0.500,2698.000,1.000,1106.000,5.000,0
"04/07/08","16:07:46",17062.000,"cc",28374.707,6.00,6,0.100,7831.000,0.200,2946.000,0.300,2346.000,0.500,2802.000,1.000,1137.000,5.000,0
"04/07/08","16:07:52",16014.000,"cc",28391.912,6.00,6,0.100,7631.000,0.200,2523.000,0.300,2192.000,0.500,2660.000,1.000,1008.000,5.000,0
"04/07/08","16:07:58",16590.000,"cc",28304.471,6.00,6,0.100,7666.000,0.200,2787.000,0.300,2357.000,0.500,2720.000,1.000,1060.000,5.000,0
"04/07/08","16:08:04",17328.000,"cc",28182.809,6.00,6,0.100,8031.000,0.200,2959.000,0.300,2364.000,0.500,2839.000,1.000,1135.000,5.000,0
"04/07/08","16:08:10",18132.000,"cc",28351.395,6.00,6,0.100,8514.000,0.200,3000.000,0.300,2596.000,0.500,2888.000,1.000,1134.000,5.000,0
"04/07/08","16:08:16",18314.000,"cc",28316.621,6.00,6,0.100,8487.000,0.200,3171.000,0.300,2616.000,0.500,2920.000,1.000,1120.000,5.000,0
"04/07/08","16:08:22",18625.000,"cc",28368.902,6.00,6,0.100,8390.000,0.200,3394.000,0.300,2615.000,0.500,3080.000,1.000,1145.000,5.000,1.000
"04/07/08","16:08:28",17238.000,"cc",28383.697,6.00,6,0.100,8047.000,0.200,2912.000,0.300,2429.000,0.500,2750.000,1.000,1098.000,5.000,2.000
"04/07/08","16:08:34",16898.000,"cc",28161.637,6.00,6,0.100,7897.000,0.200,2813.000,0.300,2353.000,0.500,2741.000,1.000,1094.000,5.000,0
"04/07/08","16:08:40",16826.000,"cc",28205.977,6.00,6,0.100,7783.000,0.200,2848.000,0.300,2387.000,0.500,2757.000,1.000,1051.000,5.000,0
"04/07/08","16:08:46",16824.000,"cc",28401.904,6.00,6,0.100,7929.000,0.200,2746.000,0.300,2343.000,0.500,2715.000,1.000,1091.000,5.000,0
"04/07/08","16:08:52",16808.000,"cc",28380.863,6.00,6,0.100,8048.000,0.200,2691.000,0.300,2377.000,0.500,2693.000,1.000,999.000,5.000,0
"04/07/08","16:08:58",16454.000,"cc",28162.471,6.00,6,0.100,7713.000,0.200,2786.000,0.300,2237.000,0.500,2717.000,1.000,1001.000,5.000,0
"04/07/08","16:09:04",16345.000,"cc",28406.377,6.00,6,0.100,7615.000,0.200,2772.000,0.300,2304.000,0.500,2632.000,1.000,1022.000,5.000,0
"04/07/08","16:09:10",16771.000,"cc",28443.887,6.00,6,0.100,7911.000,0.200,2703.000,0.300,2376.000,0.500,2729.000,1.000,1052.000,5.000,0
"04/07/08","16:09:16",16203.000,"cc",28308.115,6.00,6,0.100,7589.000,0.200,2677.000,0.300,2267.000,0.500,2544.000,1.000,1126.000,5.000,0
"04/07/08","16:09:22",16021.000,"cc",28203.549,6.00,6,0.100,7648.000,0.200,2588.000,0.300,2178.000,0.500,2557.000,1.000,1050.000,5.000,0
"04/07/08","16:09:28",16469.000,"cc",28458.148,6.00,6,0.100,7825.000,0.200,2671.000,0.300,2228.000,0.500,2686.000,1.000,1059.000,5.000,0
"04/07/08","16:09:34",16216.000,"cc",28282.930,6.00,6,0.100,7529.000,0.200,2702.000,0.300,2218.000,0.500,2689.000,1.000,1078.000,5.000,0
"04/07/08","16:09:40",16165.000,"cc",28387.996,6.00,6,0.100,7649.000,0.200,2609.000,0.300,2102.000,0.500,2715.000,1.000,1090.000,5.000,0
"04/07/08","16:09:46",15949.000,"cc",28314.350,6.00,6,0.100,7520.000,0.200,2550.000,0.300,2179.000,0.500,2651.000,1.000,1048.000,5.000,1.000
"04/07/08","16:09:52",16651.000,"cc",28081.014,6.00,6,0.100,7926.000,0.200,2607.000,0.300,2273.000,0.500,2776.000,1.000,1069.000,5.000,0
"04/07/08","16:09:58",17244.000,"cc",28218.223,6.00,6,0.100,7921.000,0.200,2901.000,0.300,2473.000,0.500,2872.000,1.000,1077.000,5.000,0
"04/07/08","16:10:04",17665.000,"cc",28398.773,6.00,6,0.100,8265.000,0.200,2960.000,0.300,2481.000,0.500,2898.000,1.000,1061.000,5.000,0
"04/07/08","16:10:10",16563.000,"cc",28487.201,6.00,6,0.100,7813.000,0.200,2695.000,0.300,2330.000,0.500,2727.000,1.000,998.000,5.000,0
"04/07/08","16:10:16",16534.000,"cc",28173.285,6.00,6,0.100,7703.000,0.200,2751.000,0.300,2336.000,0.500,2744.000,1.000,1000.000,5.000,0
"04/07/08","16:10:22",16561.000,"cc",28299.258,6.00,6,0.100,7678.000,0.200,2835.000,0.300,2355.000,0.500,2649.000,1.000,1044.000,5.000,0
"04/07/08","16:10:28",16249.000,"cc",28360.190,6.00,6,0.100,7552.000,0.200,2768.000,0.300,2229.000,0.500,2683.000,1.000,1017.000,5.000,0
"04/07/08","16:10:34",16874.000,"cc",28312.992,6.00,6,0.100,7836.000,0.200,2832.000,0.300,2392.000,0.500,2780.000,1.000,1034.000,5.000,0
"04/07/08","16:10:40",17225.000,"cc",28287.615,6.00,6,0.100,8021.000,0.200,2958.000,0.300,2360.000,0.500,2840.000,1.000,1046.000,5.000,0
"04/07/08","16:10:46",16651.000,"cc",28361.324,6.00,6,0.100,7875.000,0.200,2720.000,0.300,2293.000,0.500,2753.000,1.000,1010.000,5.000,0
"04/07/08","16:10:52",16533.000,"cc",28401.023,6.00,6,0.100,7637.000,0.200,2735.000,0.300,2333.000,0.500,2795.000,1.000,1032.000,5.000,1.000
"04/07/08","16:10:58",16851.000,"cc",28313.365,6.00,6,0.100,7992.000,0.200,2770.000,0.300,2323.000,0.500,2752.000,1.000,1014.000,5.000,0
"04/07/08","16:11:04",16203.000,"cc",28233.715,6.00,6,0.100,7590.000,0.200,2647.000,0.300,2259.000,0.500,2675.000,1.000,1032.000,5.000,0
"04/07/08","16:11:10",16079.000,"cc",28289.002,6.00,6,0.100,7726.000,0.200,2622.000,0.300,2152.000,0.500,2586.000,1.000,993.000,5.000,0
"04/07/08","16:11:16",16540.000,"cc",28337.188,6.00,6,0.100,7948.000,0.200,2689.000,0.300,2289.000,0.500,2653.000,1.000,961.000,5.000,0
"04/07/08","16:11:22",17179.000,"cc",28321.117,6.00,6,0.100,8088.000,0.200,2806.000,0.300,2435.000,0.500,2792.000,1.000,1058.000,5.000,0
"04/07/08","16:11:28",16729.000,"cc",28335.190,6.00,6,0.100,7796.000,0.200,2769.000,0.300,2355.000,0.500,2744.000,1.000,1065.000,5.000,0
"04/07/08","16:11:34",17010.000,"cc",28326.348,6.00,6,0.100,7932.000,0.200,2815.000,0.300,2397.000,0.500,2863.000,1.000,1003.000,5.000,0
"04/07/08","16:11:40",17325.000,"cc",28255.941,6.00,6,0.100,8085.000,0.200,2931.000,0.300,2415.000,0.500,2875.000,1.000,1019.000,5.000,0
"04/07/08","16:11:46",17798.000,"cc",28272.025,6.00,6,0.100,8244.000,0.200,3076.000,0.300,2491.000,0.500,2931.000,1.000,1056.000,5.000,0
"04/07/08","16:11:52",17484.000,"cc",28337.652,6.00,6,0.100,8138.000,0.200,2865.000,0.300,2492.000,0.500,2894.000,1.000,1095.000,5.000,0
"04/07/08","16:11:58",17591.000,"cc",28309.727,6.00,6,0.100,8030.000,0.200,3067.000,0.300,2422.000,0.500,2977.000,1.000,1095.000,5.000,0
"04/07/08","16:12:04",17666.000,"cc",28316.547,6.00,6,0.100,8244.000,0.200,2935.000,0.300,2471.000,0.500,2961.000,1.000,1055.000,5.000,0
"04/07/08","16:12:10",18547.000,"cc",28326.807,6.00,6,0.100,8676.000,0.200,3031.000,0.300,2622.000,0.500,3102.000,1.000,1116.000,5.000,0
"04/07/08","16:12:16",18024.000,"cc",28302.275,6.00,6,0.100,8380.000,0.200,3105.000,0.300,2494.000,0.500,2980.000,1.000,1065.000,5.000,0
"04/07/08","16:12:22",18378.000,"cc",28313.793,6.00,6,0.100,8491.000,0.200,3111.000,0.300,2610.000,0.500,3059.000,1.000,1107.000,5.000,0
"04/07/08","16:12:28",18079.000,"cc",28359.424,6.00,6,0.100,8262.000,0.200,3052.000,0.300,2617.000,0.500,3081.000,1.000,1067.000,5.000,0
"04/07/08","16:12:34",16875.000,"cc",28273.955,6.00,6,0.100,7850.000,0.200,2768.000,0.300,2413.000,0.500,2758.000,1.000,1086.000,5.000,0
"04/07/08","16:12:40",16283.000,"cc",28453.873,6.00,6,0.100,7617.000,0.200,2753.000,0.300,2346.000,0.500,2576.000,1.000,991.000,5.000,0
"04/07/08","16:12:46",16486.000,"cc",28277.291,6.00,6,0.100,7728.000,0.200,2759.000,0.300,2270.000,0.500,2722.000,1.000,1007.000,5.000,0
"04/07/08","16:12:52",18456.000,"cc",28329.721,6.00,6,0.100,8551.000,0.200,3212.000,0.300,2546.000,0.500,3056.000,1.000,1091.000,5.000,0
"04/07/08","16:12:58",18443.000,"cc",28259.070,6.00,6,0.100,8409.000,0.200,3126.000,0.300,2644.000,0.500,3088.000,1.000,1176.000,5.000,0
"04/07/08","16:13:04",16770.000,"cc",28358.348,6.00,6,0.100,7946.000,0.200,2753.000,0.300,2284.000,0.500,2757.000,1.000,1030.000,5.000,0
"04/07/08","16:13:10",16967.000,"cc",28312.025,6.00,6,0.100,7874.000,0.200,2896.000,0.300,2340.000,0.500,2708.000,1.000,1149.000,5.000,0
"04/07/08","16:13:16",16923.000,"cc",28288.266,6.00,6,0.100,7936.000,0.200,2785.000,0.300,2402.000,0.500,2732.000,1.000,1068.000,5.000,0
"04/07/08","16:13:22",17314.000,"cc",28292.234,6.00,6,0.100,8062.000,0.200,2841.000,0.300,2534.000,0.500,2805.000,1.000,1072.000,5.000,0
"04/07/08","16:13:28",16155.000,"cc",28261.061,6.00,6,0.100,7687.000,0.200,2695.000,0.300,2205.000,0.500,2586.000,1.000,982.000,5.000,0
"04/07/08","16:13:34",16701.000,"cc",28327.719,6.00,6,0.100,7743.000,0.200,2828.000,0.300,2373.000,0.500,2733.000,1.000,1023.000,5.000,1.000
"04/07/08","16:13:40",16719.000,"cc",28370.658,6.00,6,0.100,7758.000,0.200,2835.000,0.300,2332.000,0.500,2786.000,1.000,1008.000,5.000,0
"04/07/08","16:13:46",16416.000,"cc",28383.428,6.00,6,0.100,7722.000,0.200,2745.000,0.300,2251.000,0.500,2681.000,1.000,1017.000,5.000,0
"04/07/08","16:13:52",16234.000,"cc",28231.217,6.00,6,0.100,7624.000,0.200,2689.000,0.300,2223.000,0.500,2680.000,1.000,1018.000,5.000,0
"04/07/08","16:13:58",15871.000,"cc",28382.152,6.00,6,0.100,7687.000,0.200,2502.000,0.300,2151.000,0.500,2567.000,1.000,964.000,5.000,0
"04/07/08","16:14:04",16041.000,"cc",28460.248,6.00,6,0.100,7448.000,0.200,2716.000,0.300,2235.000,0.500,2601.000,1.000,1041.000,5.000,0
"04/07/08","16:14:10",16091.000,"cc",28302.691,6.00,6,0.100,7437.000,0.200,2636.000,0.300,2264.000,0.500,2618.000,1.000,1136.000,5.000,0
"04/07/08","16:14:16",15501.000,"cc",28357.506,6.00,6,0.100,7399.000,0.200,2508.000,0.300,2088.000,0.500,2531.000,1.000,975.000,5.000,0
"04/07/08","16:14:22",14956.000,"cc",28218.248,6.00,6,0.100,7102.000,0.200,2408.000,0.300,2072.000,0.500,2433.000,1.000,941.000,5.000,0
"04/07/08","16:14:28",15929.000,"cc",28256.512,6.00,6,0.100,7397.000,0.200,2681.000,0.300,2208.000,0.500,2662.000,1.000,981.000,5.000,0
"04/07/08","16:14:34",16050.000,"cc",28353.543,6.00,6,0.100,7521.000,0.200,2655.000,0.300,2279.000,0.500,2559.000,1.000,1036.000,5.000,0
"04/07/08","16:14:40",15421.000,"cc",28429.285,6.00,6,0.100,7290.000,0.200,2562.000,0.300,2119.000,0.500,2456.000,1.000,994.000,5.000,0
"04/07/08","16:14:46",15695.000,"cc",28358.641,6.00,6,0.100,7450.000,0.200,2492.000,0.300,2152.000,0.500,2542.000,1.000,1059.000,5.000,0
"04/07/08","16:14:52",15937.000,"cc",28232.797,6.00,6,0.100,7383.000,0.200,2601.000,0.300,2249.000,0.500,2651.000,1.000,1053.000,5.000,0
"04/07/08","16:14:58",16044.000,"cc",28303.533,6.00,6,0.100,7425.000,0.200,2615.000,0.300,2188.000,0.500,2744.000,1.000,1072.000,5.000,0
"04/07/08","16:15:04",15977.000,"cc",28237.750,6.00,6,0.100,7549.000,0.200,2655.000,0.300,2163.000,0.500,2586.000,1.000,1024.000,5.000,0
"04/07/08","16:15:10",15215.000,"cc",28264.781,6.00,6,0.100,7199.000,0.200,2456.000,0.300,2086.000,0.500,2494.000,1.000,980.000,5.000,0
"04/07/08","16:15:16",16151.000,"cc",28365.945,6.00,6,0.100,7594.000,0.200,2581.000,0.300,2269.000,0.500,2654.000,1.000,1053.000,5.000,0
"04/07/08","16:15:22",16397.000,"cc",28173.748,6.00,6,0.100,7818.000,0.200,2719.000,0.300,2238.000,0.500,2607.000,1.000,1014.000,5.000,1.000
"04/07/08","16:15:28",19115.000,"cc",28241.352,6.00,6,0.100,8485.000,0.200,3227.000,0.300,2840.000,0.500,3190.000,1.000,1373.000,5.000,0
"04/07/08","16:15:34",17832.000,"cc",28268.164,6.00,6,0.100,8251.000,0.200,2948.000,0.300,2541.000,0.500,2963.000,1.000,1129.000,5.000,0
"04/07/08","16:15:40",17518.000,"cc",28341.150,6.00,6,0.100,7989.000,0.200,2979.000,0.300,2587.000,0.500,2893.000,1.000,1070.000,5.000,0
"04/07/08","16:15:46",16918.000,"cc",28324.209,6.00,6,0.100,7919.000,0.200,2870.000,0.300,2379.000,0.500,2769.000,1.000,981.000,5.000,0
"04/07/08","16:15:52",16172.000,"cc",28308.262,6.00,6,0.100,7624.000,0.200,2660.000,0.300,2295.000,0.500,2517.000,1.000,1076.000,5.000,0
"04/07/08","16:15:58",15577.000,"cc",28369.004,6.00,6,0.100,7327.000,0.200,2507.000,0.300,2208.000,0.500,2561.000,1.000,974.000,5.000,0
"04/07/08","16:16:04",15637.000,"cc",28265.865,6.00,6,0.100,7292.000,0.200,2477.000,0.300,2151.000,0.500,2688.000,1.000,1029.000,5.000,0
"04/07/08","16:16:10",15938.000,"cc",28407.787,6.00,6,0.100,7351.000,0.200,2555.000,0.300,2275.000,0.500,2683.000,1.000,1074.000,5.000,0
"04/07/08","16:16:16",16274.000,"cc",28272.289,6.00,6,0.100,7622.000,0.200,2655.000,0.300,2291.000,0.500,2685.000,1.000,1021.000,5.000,0
"04/07/08","16:16:22",16828.000,"cc",28282.488,6.00,6,0.100,7775.000,0.200,2803.000,0.300,2432.000,0.500,2745.000,1.000,1073.000,5.000,0